This demonstration page uses our WeatherBlox Daily Observations layout. Learn more.

Left ArrowRight Arrow

39.92423, -83.80882

Hourly Observations for August 24, 2021

Temp ( °F °C ) Dew Point ( °F °C ) Humidity (%) Winds ( mph kmh ) Pressure ( in mb ) Visibility ( mi km ) Precip ( " mm )
12:56 am 00:56 Clear 68 20 N/A N/A Calm 30.01 1016 10 16 0.00 0.00
1:56 am 01:56 Clear 68 20 N/A N/A Calm 30.02 1017 10 16 0.00 0.00
2:56 am 02:56 Clear 66 19 N/A N/A Calm 30.02 1017 8 13 0.00 0.00
3:56 am 03:56 Clear 68 20 N/A N/A Calm 30.02 1017 10 16 0.00 0.00
4:35 am 04:35 Clear with Mist and Fog 66 19 N/A N/A Calm 30.02 1016 1 2 0.00 0.00
4:37 am 04:37 Clear with Mist and Fog 66 19 N/A N/A Calm 30.02 1016 1 1 0.00 0.00
4:56 am 04:56 Clear with Mist and Fog 66 19 N/A N/A Calm 30.02 1017 1 1 0.00 0.00
4:59 am 04:59 Clear with Mist and Fog 66 19 N/A N/A Calm 30.03 1017 1 2 0.00 0.00
5:07 am 05:07 Mostly Clear with Mist and Fog 66 19 N/A N/A Calm 30.03 1017 2 3 0.00 0.00
5:16 am 05:16 Hazy 66 19 N/A N/A Calm 30.03 1017 5 8 0.00 0.00
5:38 am 05:38 Clear with Mist and Fog 66 19 N/A N/A Calm 30.03 1017 2 2 0.00 0.00
5:42 am 05:42 Clear with Mist and Fog 66 19 N/A N/A Calm 30.03 1017 1 1 0.00 0.00
5:52 am 05:52 Clear with Mist and Fog 66 19 N/A N/A Calm 30.03 1017 1 2 0.00 0.00
5:54 am 05:54 Clear with Mist and Fog 64 18 N/A N/A Calm 30.03 1017 3 5 0.00 0.00
5:56 am 05:56 Hazy 64 18 N/A N/A Calm 30.03 1017 5 8 0.00 0.00
6:05 am 06:05 Clear with Mist and Fog 64 18 N/A N/A Calm 30.03 1017 2 3 0.00 0.00
6:09 am 06:09 Clear with Mist and Fog 64 18 N/A N/A Calm 30.03 1017 1 1 0.00 0.00
6:20 am 06:20 Clear with Mist and Fog 64 18 N/A N/A Calm 30.03 1017 1 2 0.00 0.00
6:27 am 06:27 Clear with Mist and Fog 64 18 N/A N/A Calm 30.03 1017 3 5 0.00 0.00
6:46 am 06:46 Clear with Mist and Fog 64 18 N/A N/A Calm 30.03 1017 1 1 0.00 0.00
6:50 am 06:50 Mostly Cloudy with Fog 64 18 N/A N/A Calm 30.04 1017 0 0 0.00 0.00
6:56 am 06:56 Mostly Cloudy with Fog 64 18 N/A N/A Calm 30.04 1017 0 0 0.00 0.00
7:01 am 07:01 Mostly Cloudy with Mist and Fog 64 18 N/A N/A Calm 30.04 1017 1 1 0.00 0.00
7:03 am 07:03 Partly Cloudy with Mist and Fog 64 18 N/A N/A Calm 30.04 1017 3 5 0.00 0.00
7:56 am 07:56 Sunny 68 20 N/A N/A Calm 30.05 1018 9 14 0.00 0.00
8:56 am 08:56 Sunny 76 24.4 76 24.4 100 100 Calm 30.06 1018 10 16 0.00 0.00
9:56 am 09:56 Sunny 81 27.2 74 23.3 79 79 Calm 30.05 1018 10 16 0.00 0.00
10:56 am 10:56 Sunny 84 28.9 74 23.3 72 72 SSW 3 6 30.07 1018 10 16 0.00 0.00
11:56 am 11:56 Sunny 86 30 73 22.8 65 65 Calm 30.07 1018 10 16 0.00 0.00
12:56 pm 12:56 Partly Cloudy 87 30.6 74 23.3 65 65 SSW 3 6 30.06 1018 10 16 0.00 0.00
1:56 pm 13:56 Sunny 88 31.1 73 22.8 61 61 Calm 30.06 1018 9 14 0.00 0.00
2:56 pm 14:56 Mostly Sunny 89 31.7 73 22.8 59 59 Calm 30.05 1018 10 16 0.00 0.00
3:56 pm 15:56 Partly Cloudy 87 30.6 76 24.4 70 70 SSE 3 6 30.03 1017 10 16 0.00 0.00
4:56 pm 16:56 Partly Cloudy 88 31.1 76 24.4 68 68 SSE 5 7 30.02 1017 10 16 0.00 0.00
5:56 pm 17:56 Sunny 88 31.1 76 24.4 68 68 SSE 6 9 30.02 1017 10 16 0.00 0.00
6:56 pm 18:56 Sunny 86 30 75 23.9 70 70 SSE 5 7 30.01 1016 10 16 0.00 0.00
7:56 pm 19:56 Sunny 81 27.2 76 24.4 85 85 SSE 5 7 30.00 1016 10 16 0.00 0.00
8:56 pm 20:56 Clear 80 26.7 73 22.8 79 79 SSE 3 6 30.02 1017 10 16 0.00 0.00
9:56 pm 21:56 Clear 75 23.9 75 23.9 100 100 ESE 3 6 30.04 1017 10 16 0.00 0.00
10:56 pm 22:56 Clear 73 23 N/A N/A Calm 30.06 1018 10 16 0.00 0.00
11:56 pm 23:56 Clear 72 22 N/A N/A Calm 30.06 1018 10 16 0.00 0.00

Powered by AerisWeather